Weather History for KPMV - November, 2012

Change the Weather History Date:

Thursday, November 1, 2012

  Actual Average (KOFF) Record (KOFF)
Temperature  
Mean Temperature 50 °F -  
Max Temperature 60 °F 54 °F 75 °F (2001)
Min Temperature 40 °F 35 °F 19 °F (2002)
Degree Days  
Heating Degree Days 15    
Moisture  
Dew Point 38 °F    
Average Humidity 67    
Maximum Humidity 91    
Minimum Humidity 47    
Precipitation  
Precipitation 0.00 in - - ()
Sea Level Pressure  
Sea Level Pressure 29.97 in    
Wind  
Wind Speed 5 mph (North)    
Max Wind Speed 12 mph    
Max Gust Speed 17 mph    
Visibility 9 miles    
Events      
Averages and records for this station are not official NWS values.
T = Trace of Precipitation, MM = Missing Value Source: NWS Daily Summary

Daily Weather History Graph

Daily Weather History Graph

Search for Another Location

Airport or City:

Trip Planner

Search our weather history database for the weather conditions in past years. The results will help you decide how hot, cold, wet, or windy it might be!

Date:

Astronomy

Nov. 01, 2012 Rise Set
Actual Time 7:55 AM CDT 6:18 PM CDT
Civil Twilight 7:26 AM CDT 6:47 PM CDT
Nautical Twilight 6:53 AM CDT 7:19 PM CDT
Astronomical Twilight 6:21 AM CDT 7:51 PM CDT
Moon 8:15 PM CDT (11/1) 10:29 AM CDT (11/1)
Length of Visible Light 11h 20m
Length of Day
10h 23m
Waning Gibbous, 93% of the Moon is Illuminated
Nov 1
Waning Gibbous
Nov 6
Last Quarter
Nov 13
New
Nov 20
First Quarter
Nov 28
Full

Hourly Weather History & Observations

Time (CDT) Temp. Windchill Dew Point Humidity Pressure Visibility Wind Dir Wind Speed Gust Speed Precip Events Conditions
12:15 AM 50.0 °F - 35.6 °F 58% 29.98 in 10.0 mi South 3.5 mph - N/A   Overcast
12:35 AM 51.8 °F - 35.6 °F 54% 29.98 in 10.0 mi South 5.8 mph - N/A   Overcast
12:55 AM 51.1 °F - 35.4 °F 55% 29.98 in 10.0 mi SSE 4.6 mph - N/A   Overcast
1:15 AM 50.0 °F - 35.1 °F 57% 29.97 in 10.0 mi SSE 5.8 mph - N/A   Overcast
1:35 AM 49.6 °F - 35.4 °F 58% 29.97 in 10.0 mi South 6.9 mph - N/A   Overcast
1:55 AM 49.1 °F - 35.6 °F 60% 29.96 in 10.0 mi South 5.8 mph - N/A   Overcast
2:15 AM 48.7 °F - 36.1 °F 62% 29.97 in 10.0 mi SSE 3.5 mph - N/A   Overcast
2:35 AM 48.2 °F - 36.1 °F 63% 29.97 in 10.0 mi SE 3.5 mph - N/A   Mostly Cloudy
2:55 AM 47.7 °F - 36.1 °F 64% 29.97 in 10.0 mi SSE 3.5 mph - N/A   Mostly Cloudy
3:15 AM 47.7 °F - 36.0 °F 64% 29.97 in 10.0 mi Calm Calm - N/A   Overcast
3:35 AM 47.5 °F - 35.2 °F 63% 29.96 in 10.0 mi SSE 3.5 mph - N/A   Overcast
3:55 AM 46.2 °F - 35.6 °F 66% 29.96 in 10.0 mi Calm Calm - N/A   Scattered Clouds
4:15 AM 45.0 °F 41.8 °F 36.0 °F 71% 29.95 in 10.0 mi SE 5.8 mph - N/A   Clear
4:35 AM 44.2 °F 41.0 °F 36.1 °F 73% 29.95 in 10.0 mi SSE 5.8 mph - N/A   Clear
5:15 AM 43.9 °F 41.3 °F 34.7 °F 70% 29.95 in 10.0 mi SSE 4.6 mph - N/A   Clear
5:35 AM 43.7 °F 40.3 °F 34.7 °F 71% 29.95 in 10.0 mi South 5.8 mph - N/A   Clear
6:15 AM 43.7 °F 40.3 °F 35.8 °F 74% 29.95 in 10.0 mi South 5.8 mph - N/A   Clear
6:35 AM 44.2 °F 41.0 °F 35.8 °F 72% 29.94 in 10.0 mi South 5.8 mph - N/A   Clear
6:55 AM 43.3 °F 39.9 °F 36.5 °F 77% 29.94 in 10.0 mi South 5.8 mph - N/A   Clear
7:15 AM 43.7 °F 40.3 °F 36.5 °F 76% 29.93 in 10.0 mi SSE 5.8 mph - N/A   Clear
7:35 AM 43.2 °F 39.7 °F 36.3 °F 77% 29.93 in 10.0 mi SSE 5.8 mph - N/A   Clear
7:55 AM 42.8 °F 39.3 °F 36.5 °F 78% 29.93 in 10.0 mi SSE 5.8 mph - N/A   Clear
8:35 AM 44.1 °F 40.1 °F 38.3 °F 80% 29.93 in 10.0 mi South 6.9 mph - N/A   Clear
9:15 AM 44.8 °F 42.4 °F 38.7 °F 79% 29.95 in 10.0 mi North 4.6 mph - N/A   Clear
9:35 AM 47.3 °F - 39.9 °F 76% 29.96 in 10.0 mi North 5.8 mph - N/A   Clear
9:55 AM 48.6 °F - 39.7 °F 72% 29.95 in 10.0 mi North 5.8 mph - N/A   Clear
10:15 AM 49.6 °F - 39.6 °F 68% 29.96 in 10.0 mi North 4.6 mph - N/A   Clear
10:35 AM 51.8 °F - 39.9 °F 64% 29.96 in 10.0 mi NNW 6.9 mph - N/A   Clear
10:55 AM 52.7 °F - 39.0 °F 60% 29.97 in 10.0 mi NNW 9.2 mph - N/A   Clear
11:15 AM 54.1 °F - 39.2 °F 57% 29.98 in 10.0 mi North 8.1 mph 16.1 mph N/A   Clear
11:35 AM 56.1 °F - 38.3 °F 51% 29.98 in 10.0 mi North 6.9 mph - N/A   Clear
11:55 AM 57.0 °F - 37.8 °F 49% 29.99 in 10.0 mi North 9.2 mph - N/A   Clear
12:15 PM 57.0 °F - 38.1 °F 49% 29.99 in 10.0 mi North 9.2 mph - N/A   Clear
12:35 PM 58.3 °F - 38.3 °F 47% 29.99 in 10.0 mi NNW 9.2 mph 16.1 mph N/A   Clear
12:55 PM 58.8 °F - 38.8 °F 47% 29.98 in 10.0 mi North 8.1 mph - N/A   Clear
1:15 PM 58.8 °F - 39.4 °F 49% 29.98 in 10.0 mi North 9.2 mph - N/A   Clear
1:35 PM 59.0 °F - 39.0 °F 48% 29.97 in 10.0 mi NNW 10.4 mph 16.1 mph N/A   Clear
1:55 PM 59.2 °F - 39.2 °F 48% 29.97 in 10.0 mi NNW 9.2 mph 17.3 mph N/A   Clear
2:15 PM 59.0 °F - 39.4 °F 48% 29.97 in 10.0 mi NNW 11.5 mph - N/A   Clear
2:35 PM 60.1 °F - 40.3 °F 48% 29.96 in 10.0 mi North 9.2 mph - N/A   Clear
2:55 PM 59.9 °F - 40.5 °F 49% 29.96 in 10.0 mi North 10.4 mph - N/A   Clear
3:15 PM 60.1 °F - 40.8 °F 49% 29.96 in 10.0 mi North 9.2 mph - N/A   Clear
3:35 PM 59.5 °F - 41.0 °F 50% 29.96 in 10.0 mi NNW 8.1 mph - N/A   Clear
3:55 PM 59.0 °F - 41.4 °F 52% 29.96 in 10.0 mi NNW 5.8 mph - N/A   Clear
4:15 PM 58.3 °F - 41.0 °F 53% 29.95 in 10.0 mi North 5.8 mph - N/A   Clear
4:55 PM 57.2 °F - 41.4 °F 55% 29.96 in 10.0 mi NNW 5.8 mph - N/A   Clear
5:15 PM 56.3 °F - 41.4 °F 57% 29.96 in 10.0 mi North 4.6 mph - N/A   Clear
5:35 PM 54.9 °F - 41.4 °F 60% 29.96 in 10.0 mi North 3.5 mph - N/A   Clear
5:55 PM 52.7 °F - 41.2 °F 65% 29.95 in 7.0 mi North 4.6 mph - N/A   Clear
6:15 PM 51.4 °F - 41.2 °F 68% 29.96 in 7.0 mi North 6.9 mph - N/A   Clear
6:35 PM 49.6 °F - 40.5 °F 71% 29.97 in 10.0 mi North 3.5 mph - N/A   Clear
6:55 PM 47.5 °F - 40.1 °F 76% 29.97 in 10.0 mi North 3.5 mph - N/A   Clear
7:15 PM 47.1 °F - 39.9 °F 76% 29.97 in 10.0 mi North 3.5 mph - N/A   Clear
7:35 PM 45.9 °F - 40.1 °F 80% 29.97 in 10.0 mi Calm Calm - N/A   Clear
7:55 PM 44.8 °F 43.3 °F 39.6 °F 82% 29.97 in 10.0 mi North 3.5 mph - N/A   Clear
8:15 PM 45.0 °F 43.5 °F 40.1 °F 83% 29.98 in 7.0 mi North 3.5 mph - N/A   Clear
8:35 PM 44.6 °F - 39.9 °F 84% 29.97 in 7.0 mi Calm Calm - N/A   Clear
8:55 PM 43.7 °F 42.1 °F 39.6 °F 85% 29.97 in 7.0 mi North 3.5 mph - N/A   Clear
9:15 PM 43.9 °F - 39.7 °F 85% 29.97 in 7.0 mi Calm Calm - N/A   Clear
9:35 PM 43.0 °F 41.3 °F 39.2 °F 86% 29.98 in 7.0 mi North 3.5 mph - N/A   Clear
9:55 PM 43.0 °F 41.3 °F 39.2 °F 86% 29.99 in 7.0 mi North 3.5 mph - N/A   Clear
10:15 PM 42.8 °F 40.1 °F 39.2 °F 87% 29.98 in 7.0 mi North 4.6 mph - N/A   Clear
10:35 PM 42.1 °F - 38.8 °F 88% 29.98 in 7.0 mi Calm Calm - N/A   Clear
10:55 PM 41.9 °F 39.0 °F 38.8 °F 89% 29.98 in 7.0 mi NNE 4.6 mph - N/A   Clear
11:15 PM 40.6 °F 37.5 °F 38.1 °F 91% 29.98 in 7.0 mi NNE 4.6 mph - N/A   Clear
11:35 PM 41.0 °F 38.0 °F 38.1 °F 89% 29.98 in 7.0 mi NNE 4.6 mph - N/A   Clear
11:55 PM 40.8 °F 37.8 °F 38.3 °F 91% 29.98 in 7.0 mi NE 4.6 mph - N/A   Clear